Tracking 30056 objects as of 10-Dec-2024
HD Live streaming from Space Station
objects crossing your sky now

CZ-4C DEB

Track CZ-4C DEB now!
10-day predictions


NORAD ID: 37567
Int'l Code: 2010-038C
Perigee: 552.6 km
Apogee: 696.5 km
Inclination: 97.7 °
Period: 97.1 minutes
Semi major axis: 6995 km
RCS: 0.0012 m2 (small)
Launch date: August 9, 2010
Source: People's Republic of China (PRC)
Launch site: Taiyaun Space Center, China (TSC)

Note: This is SATELLITE DEBRIS
Your satellite tracking list
Your tracking list is empty




NASA's NSSDC Master Catalog

Two Line Element Set (TLE):
1 37567U 10038C   24343.81103828  .00023725  00000-0  26085-2 0  9999
2 37567  97.7309 173.5104 0102848 272.9703  97.0475 14.83769306759582
Source of the keplerian elements: AFSPC